Time,TemperatureF,DewpointF,PressureIn,WindDirection,WindDirectionDegrees,WindSpeedMPH,WindSpeedGustMPH,Humidity,HourlyPrecipIn,Conditions,Clouds,dailyrainin,SolarRadiationWatts/m^2,SoftwareType,DateUTC
2013-01-22 00:04:00,48.1,38.0,30.07,NE,53,1.0,11.0,68,0.00,,,0.00,0,weatherlink.com 1.10,2013-01-22 08:04:00,
2013-01-22 00:19:00,48.6,37.0,30.06,NE,53,4.0,12.0,65,0.00,,,0.00,0,weatherlink.com 1.10,2013-01-22 08:19:00,
2013-01-22 00:34:00,47.3,36.0,30.05,ENE,64,13.0,18.0,66,0.00,,,0.00,0,weatherlink.com 1.10,2013-01-22 08:34:00,
2013-01-22 00:49:00,48.3,36.0,30.06,NE,38,3.0,19.0,62,0.00,,,0.00,0,weatherlink.com 1.10,2013-01-22 08:49:00,
2013-01-22 01:04:00,48.3,36.0,30.07,North,11,6.0,10.0,62,0.00,,,0.00,0,weatherlink.com 1.10,2013-01-22 09:04:00,
2013-01-22 01:19:00,44.6,35.0,30.06,NE,51,6.0,12.0,70,0.00,,,0.00,0,weatherlink.com 1.10,2013-01-22 09:19:00,
2013-01-22 01:34:00,45.2,36.0,30.05,ESE,102,3.0,10.0,69,0.00,,,0.00,0,weatherlink.com 1.10,2013-01-22 09:34:00,
2013-01-22 01:49:00,47.4,34.0,30.05,NW,311,1.0,7.0,61,0.00,,,0.00,0,weatherlink.com 1.10,2013-01-22 09:49:00,
2013-01-22 02:04:00,48.1,34.0,30.06,NE,55,4.0,8.0,59,0.00,,,0.00,0,weatherlink.com 1.10,2013-01-22 10:04:00,
2013-01-22 02:19:00,48.3,34.0,30.06,WSW,242,2.0,6.0,59,0.00,,,0.00,0,weatherlink.com 1.10,2013-01-22 10:19:00,
2013-01-22 02:34:00,47.4,34.0,30.06,WNW,298,2.0,7.0,61,0.00,,,0.00,0,weatherlink.com 1.10,2013-01-22 10:34:00,
2013-01-22 02:49:00,45.2,34.0,30.06,NNE,22,3.0,9.0,66,0.00,,,0.00,0,weatherlink.com 1.10,2013-01-22 10:49:00,
2013-01-22 03:04:00,43.1,34.0,30.05,NNE,21,12.0,14.0,71,0.00,,,0.00,0,weatherlink.com 1.10,2013-01-22 11:04:00,
2013-01-22 03:19:00,43.2,34.0,30.04,NNE,17,7.0,14.0,70,0.00,,,0.00,0,weatherlink.com 1.10,2013-01-22 11:19:00,
2013-01-22 03:34:00,45.3,34.0,30.04,NE,56,8.0,17.0,65,0.00,,,0.00,0,weatherlink.com 1.10,2013-01-22 11:34:00,
2013-01-22 03:49:00,48.9,33.0,30.03,NNE,32,12.0,17.0,55,0.00,,,0.00,0,weatherlink.com 1.10,2013-01-22 11:49:00,
2013-01-22 04:04:00,50.2,32.0,30.03,NNE,23,10.0,19.0,50,0.00,,,0.00,0,weatherlink.com 1.10,2013-01-22 12:04:00,
2013-01-22 04:19:00,51.0,32.0,30.02,NE,38,12.0,21.0,48,0.00,,,0.00,0,weatherlink.com 1.10,2013-01-22 12:19:00,
2013-01-22 04:34:00,48.6,31.0,30.03,West,279,0.0,15.0,52,0.00,,,0.00,0,weatherlink.com 1.10,2013-01-22 12:34:00,
2013-01-22 04:49:00,48.8,32.0,30.02,North,360,6.0,11.0,52,0.00,,,0.00,0,weatherlink.com 1.10,2013-01-22 12:49:00,
2013-01-22 05:04:00,50.0,30.0,30.02,East,81,1.0,11.0,47,0.00,,,0.00,0,weatherlink.com 1.10,2013-01-22 13:04:00,
2013-01-22 05:19:00,51.0,31.0,30.03,SSW,199,3.0,9.0,46,0.00,,,0.00,0,weatherlink.com 1.10,2013-01-22 13:19:00,
2013-01-22 05:34:00,49.4,31.0,30.03,ENE,74,4.0,10.0,49,0.00,,,0.00,0,weatherlink.com 1.10,2013-01-22 13:34:00,
2013-01-22 05:49:00,48.8,31.0,30.03,NNE,26,12.0,16.0,50,0.00,,,0.00,0,weatherlink.com 1.10,2013-01-22 13:49:00,
2013-01-22 06:04:00,49.4,30.0,30.03,NE,51,2.0,11.0,48,0.00,,,0.00,0,weatherlink.com 1.10,2013-01-22 14:04:00,
2013-01-22 06:19:00,48.7,30.0,30.03,SE,133,0.0,9.0,49,0.00,,,0.00,0,weatherlink.com 1.10,2013-01-22 14:19:00,
2013-01-22 06:34:00,47.9,30.0,30.03,NE,34,4.0,10.0,51,0.00,,,0.00,0,weatherlink.com 1.10,2013-01-22 14:34:00,
2013-01-22 06:49:00,47.6,30.0,30.03,West,279,3.0,7.0,51,0.00,,,0.00,0,weatherlink.com 1.10,2013-01-22 14:49:00,
2013-01-22 07:04:00,47.1,30.0,30.03,North,355,8.0,18.0,52,0.00,,,0.00,0,weatherlink.com 1.10,2013-01-22 15:04:00,
2013-01-22 07:19:00,49.4,30.0,30.03,ENE,66,7.0,17.0,47,0.00,,,0.00,7,weatherlink.com 1.10,2013-01-22 15:19:00,
2013-01-22 07:34:00,49.0,29.0,30.03,ENE,69,5.0,17.0,47,0.00,,,0.00,7,weatherlink.com 1.10,2013-01-22 15:34:00,
2013-01-22 07:49:00,50.0,29.0,30.03,NNE,15,3.0,13.0,45,0.00,,,0.00,26,weatherlink.com 1.10,2013-01-22 15:49:00,
2013-01-22 08:05:00,50.8,30.0,30.03,SW,224,4.0,6.0,45,0.00,,,0.00,51,weatherlink.com 1.10,2013-01-22 16:05:00,
2013-01-22 08:20:00,50.8,29.0,30.03,ENE,78,10.0,15.0,44,0.00,,,0.00,83,weatherlink.com 1.10,2013-01-22 16:20:00,
2013-01-22 08:35:00,53.8,29.0,30.03,NNE,28,8.0,17.0,38,0.00,,,0.00,169,weatherlink.com 1.10,2013-01-22 16:35:00,
2013-01-22 08:50:00,55.0,30.0,30.02,NE,48,8.0,18.0,38,0.00,,,0.00,167,weatherlink.com 1.10,2013-01-22 16:50:00,
2013-01-22 09:05:00,55.0,29.0,30.03,NNE,17,10.0,17.0,37,0.00,,,0.00,206,weatherlink.com 1.10,2013-01-22 17:05:00,
2013-01-22 09:20:00,56.6,29.0,30.03,NE,38,8.0,19.0,35,0.00,,,0.00,311,weatherlink.com 1.10,2013-01-22 17:20:00,
2013-01-22 09:35:00,57.5,29.0,30.04,North,360,7.0,21.0,34,0.00,,,0.00,181,weatherlink.com 1.10,2013-01-22 17:35:00,
2013-01-22 09:50:00,58.3,29.0,30.04,ENE,59,11.0,20.0,33,0.00,,,0.00,197,weatherlink.com 1.10,2013-01-22 17:50:00,
2013-01-22 10:05:00,59.3,29.0,30.04,ENE,62,11.0,22.0,32,0.00,,,0.00,301,weatherlink.com 1.10,2013-01-22 18:05:00,
2013-01-22 10:20:00,60.6,30.0,30.05,ENE,74,8.0,17.0,32,0.00,,,0.00,357,weatherlink.com 1.10,2013-01-22 18:20:00,
2013-01-22 10:35:00,61.2,32.0,30.06,ESE,105,4.0,15.0,33,0.00,,,0.00,329,weatherlink.com 1.10,2013-01-22 18:35:00,
2013-01-22 10:50:00,62.3,30.0,30.06,NNE,24,3.0,9.0,30,0.00,,,0.00,464,weatherlink.com 1.10,2013-01-22 18:50:00,
2013-01-22 11:05:00,63.8,30.0,30.06,North,355,2.0,15.0,28,0.00,,,0.00,508,weatherlink.com 1.10,2013-01-22 19:05:00,
2013-01-22 11:50:00,67.4,31.0,30.04,ENE,58,5.0,9.0,26,0.00,,,0.00,496,weatherlink.com 1.10,2013-01-22 19:50:00,
2013-01-22 12:05:00,64.8,40.0,30.04,SSE,166,6.0,6.0,41,0.00,,,0.00,432,weatherlink.com 1.10,2013-01-22 20:05:00,
2013-01-22 12:20:00,63.5,40.0,30.02,SE,140,3.0,7.0,43,0.00,,,0.00,526,weatherlink.com 1.10,2013-01-22 20:20:00,
2013-01-22 12:35:00,66.7,35.0,30.01,SSE,151,5.0,13.0,31,0.00,,,0.00,366,weatherlink.com 1.10,2013-01-22 20:35:00,
2013-01-22 12:50:00,68.5,33.0,30.00,SSE,148,6.0,10.0,27,0.00,,,0.00,455,weatherlink.com 1.10,2013-01-22 20:50:00,
2013-01-22 13:05:00,69.2,34.0,30.00,ENE,75,5.0,12.0,27,0.00,,,0.00,387,weatherlink.com 1.10,2013-01-22 21:05:00,
2013-01-22 13:21:00,69.7,34.0,29.99,SE,135,5.0,10.0,27,0.00,,,0.00,510,weatherlink.com 1.10,2013-01-22 21:21:00,
2013-01-22 13:36:00,70.4,35.0,29.98,SE,134,0.0,8.0,27,0.00,,,0.00,309,weatherlink.com 1.10,2013-01-22 21:36:00,
2013-01-22 14:06:00,66.3,41.0,29.99,ESE,114,2.0,6.0,40,0.00,,,0.00,197,weatherlink.com 1.10,2013-01-22 22:06:00,
2013-01-22 14:21:00,65.3,41.0,29.99,ENE,70,1.0,4.0,41,0.00,,,0.00,179,weatherlink.com 1.10,2013-01-22 22:21:00,
2013-01-22 14:36:00,65.7,36.0,29.98,ESE,113,4.0,5.0,33,0.00,,,0.00,181,weatherlink.com 1.10,2013-01-22 22:36:00,
2013-01-22 14:51:00,66.4,34.0,29.98,ESE,119,2.0,8.0,30,0.00,,,0.00,230,weatherlink.com 1.10,2013-01-22 22:51:00,
2013-01-22 15:06:00,65.8,41.0,29.99,SSE,148,4.0,5.0,41,0.00,,,0.00,165,weatherlink.com 1.10,2013-01-22 23:06:00,
2013-01-22 15:21:00,64.5,42.0,29.98,SE,144,2.0,4.0,44,0.00,,,0.00,116,weatherlink.com 1.10,2013-01-22 23:21:00,
2013-01-22 15:36:00,63.2,44.0,29.97,South,170,1.0,5.0,50,0.00,,,0.00,93,weatherlink.com 1.10,2013-01-22 23:36:00,
2013-01-22 15:51:00,62.6,45.0,29.97,South,170,0.0,2.0,53,0.00,,,0.00,86,weatherlink.com 1.10,2013-01-22 23:51:00,
2013-01-22 16:06:00,62.5,37.0,29.97,SE,142,3.0,6.0,39,0.00,,,0.00,135,weatherlink.com 1.10,2013-01-23 00:06:00,
2013-01-22 16:21:00,63.4,36.0,29.97,NE,54,2.0,5.0,37,0.00,,,0.00,63,weatherlink.com 1.10,2013-01-23 00:21:00,
2013-01-22 17:06:00,61.8,36.0,29.97,SSE,151,0.0,3.0,39,0.00,,,0.00,21,weatherlink.com 1.10,2013-01-23 01:06:00,
2013-01-22 17:21:00,60.8,35.0,29.97,NNE,32,1.0,4.0,38,0.00,,,0.00,5,weatherlink.com 1.10,2013-01-23 01:21:00,
2013-01-22 18:21:00,60.0,35.0,29.97,NE,44,2.0,6.0,40,0.00,,,0.00,0,weatherlink.com 1.10,2013-01-23 02:21:00,
2013-01-22 18:51:00,59.5,36.0,29.97,NE,35,6.0,12.0,42,0.00,,,0.00,0,weatherlink.com 1.10,2013-01-23 02:51:00,
2013-01-22 19:06:00,59.0,37.0,29.97,SE,134,0.0,11.0,44,0.00,,,0.00,0,weatherlink.com 1.10,2013-01-23 03:06:00,
2013-01-22 19:23:00,58.9,37.0,29.97,ENE,76,1.0,11.0,44,0.00,,,0.00,0,weatherlink.com 1.10,2013-01-23 03:23:00,
2013-01-22 19:36:00,58.7,37.0,29.97,NNE,20,0.0,8.0,44,0.00,,,0.00,0,weatherlink.com 1.10,2013-01-23 03:36:00,
2013-01-22 19:51:00,58.2,37.0,29.98,NE,51,3.0,7.0,45,0.00,,,0.00,0,weatherlink.com 1.10,2013-01-23 03:51:00,
2013-01-22 20:21:00,58.0,38.0,29.97,NE,49,3.0,13.0,47,0.00,,,0.00,0,weatherlink.com 1.10,2013-01-23 04:21:00,
2013-01-22 20:36:00,57.7,37.0,29.98,ENE,61,0.0,11.0,47,0.00,,,0.00,0,weatherlink.com 1.10,2013-01-23 04:36:00,
2013-01-22 20:51:00,57.8,37.0,29.98,NNE,28,5.0,11.0,47,0.00,,,0.00,0,weatherlink.com 1.10,2013-01-23 04:51:00,
2013-01-22 21:06:00,57.8,37.0,29.98,NE,35,7.0,13.0,46,0.00,,,0.00,0,weatherlink.com 1.10,2013-01-23 05:06:00,
2013-01-22 21:21:00,58.1,36.0,29.98,SE,124,2.0,13.0,44,0.00,,,0.00,0,weatherlink.com 1.10,2013-01-23 05:21:00,
2013-01-22 21:36:00,58.2,36.0,29.99,ESE,105,8.0,14.0,43,0.00,,,0.00,0,weatherlink.com 1.10,2013-01-23 05:36:00,
2013-01-22 21:51:00,58.3,35.0,30.00,East,91,1.0,11.0,42,0.00,,,0.00,0,weatherlink.com 1.10,2013-01-23 05:51:00,
2013-01-22 22:36:00,57.8,35.0,30.00,NNE,33,9.0,10.0,42,0.00,,,0.00,0,weatherlink.com 1.10,2013-01-23 06:36:00,
2013-01-22 22:51:00,57.9,34.0,30.00,NNE,17,6.0,11.0,41,0.00,,,0.00,0,weatherlink.com 1.10,2013-01-23 06:51:00,
2013-01-22 23:06:00,57.9,35.0,30.00,ENE,71,8.0,10.0,42,0.00,,,0.00,0,weatherlink.com 1.10,2013-01-23 07:06:00,
2013-01-22 23:21:00,58.0,35.0,30.00,East,87,6.0,14.0,42,0.00,,,0.00,0,weatherlink.com 1.10,2013-01-23 07:21:00,
2013-01-22 23:36:00,58.1,35.0,30.00,NNE,32,7.0,14.0,42,0.00,,,0.00,0,weatherlink.com 1.10,2013-01-23 07:36:00,
2013-01-22 23:51:00,58.1,35.0,30.00,NE,46,1.0,11.0,42,0.00,,,0.00,0,weatherlink.com 1.10,2013-01-23 07:51:00,